Weather observations for the past three days for
Mitchell, Mitchell Municipal Airport
Imperial (Metric)
Date Time (cdt) Wind (mph) Vis. (mi.) Weather Sky Cond. Temperature (ºF) Relative Humidity Wind Chill (°F) Heat Index (°F) Pressure Precipitation (in)
Air Dwpt 6 hour altimeter (in) sea level (mb) 1 hr 3 hr 6 hr
Max. Min.
04 15:53 N 22 G 31 10.00 Mostly Cloudy and Breezy BKN120 57.9 28 32% 29.78 1008.2
04 14:53 NW 28 G 37 10.00 Partly Cloudy and Windy SCT120 57.9 28.9 33% 29.77 1008.1
04 13:53 NW 24 G 37 10.00 Fair and Breezy CLR 61 27 27% 29.75 1007.4
04 12:53 NW 26 G 39 10.00 Fair and Windy CLR 61 28 63 46.9 29% 29.74 1006.9
04 11:53 NW 17 G 39 10.00 Fair CLR 61 28.9 30% 29.71 1006.1
04 10:53 N 23 G 31 10.00 Fair and Breezy CLR 61 30.9 32% 29.7 1005.5
04 09:53 N 23 G 33 10.00 Fair and Breezy CLR 60.1 36 41% 29.67 1004.6
04 08:53 N 16 10.00 A Few Clouds FEW120 55.9 37.9 51% 29.65 1004.0
04 07:53 N 13 10.00 Fair CLR 52 41 66% 29.62 1002.9
04 06:53 NW 9 10.00 Fair CLR 48.9 41 57 48 74% 45 29.58 1001.6
04 05:53 NW 10 G 20 10.00 Fair CLR 54 41 62% 29.56 1000.5
04 04:53 SW 9 10.00 Fair CLR 52 41 66% 29.55 1000.2
04 03:53 SW 10 10.00 A Few Clouds FEW100 55 39 55% 29.56 1000.8
04 02:53 SW 13 10.00 Fair CLR 55.9 37 49% 29.59 1001.5
04 01:53 SW 8 10.00 Fair CLR 54 36 51% 29.62 1002.6
04 00:53 SW 9 10.00 Fair CLR 55 33.1 70 53.1 44% 29.63 1003.2
03 23:53 S 8 10.00 Fair CLR 54 34 47% 29.65 1003.9
03 22:53 S 7 10.00 Fair CLR 55.9 34 44% 29.68 1004.8
03 21:53 SW 5 10.00 Fair CLR 60.1 32 35% 29.7 1005.5
03 20:53 SW 3 10.00 Fair CLR 64 28.9 27% 29.71 1005.9
03 19:53 W 9 10.00 Fair CLR 66.9 28 23% 29.73 1006.5
03 18:53 W 14 10.00 Fair CLR 70 32 73 68 25% 29.74 1006.9
03 17:53 W 10 10.00 Fair CLR 72 30 21% 29.76 1007.5
03 16:53 W 14 G 20 10.00 Fair CLR 72 36 27% 29.77 1007.9
03 15:53 SW 12 G 22 10.00 Fair CLR 72 37 28% 29.8 1008.8
03 14:53 W 7 10.00 A Few Clouds FEW075 71.1 37.9 30% 29.83 1009.8
03 13:53 Vrbl 3 G 21 10.00 Fair CLR 68 37.9 33% 29.85 1010.7
03 12:53 NW 12 10.00 Fair CLR 68 37 68 46 32% 29.89 1011.8
03 11:53 NW 10 10.00 Fair CLR 66 37 34% 29.9 1012.4
03 10:53 NW 12 G 17 10.00 Fair CLR 61 39 44% 29.91 1012.6
03 09:53 NW 9 10.00 Fair CLR 59 41 51% 29.92 1012.9
03 08:53 NW 9 10.00 Fair CLR 54 41 62% 29.92 1013.2
03 07:53 NW 8 10.00 Fair CLR 51.1 39.9 66% 29.9 1012.4
03 06:53 NW 7 10.00 Fair CLR 46 39 55 46 77% 43 29.89 1011.9
03 05:53 NW 10 10.00 Fair CLR 46.9 39 74% 43 29.87 1011.4
03 04:53 NW 9 10.00 Fair CLR 46.9 39 74% 43 29.86 1010.9
03 03:53 NW 10 10.00 Fair CLR 51.1 39 64% 29.84 1010.3
03 02:53 NW 12 10.00 Fair CLR 52 39 61% 29.82 1009.5
03 01:53 W 9 10.00 Fair CLR 53.1 39 59% 29.82 1009.4
03 00:53 NW 9 10.00 A Few Clouds FEW110 54 39.9 72 54 59% 29.82 1009.5
02 23:53 NW 12 10.00 A Few Clouds FEW120 60.1 39.9 48% 29.8 1009.0
02 22:53 Calm 10.00 Mostly Cloudy FEW055 FEW080 BKN110 60.1 37.9 44% 29.8 1008.7
02 21:53 Vrbl 3 10.00 Partly Cloudy SCT110 64 36 35% 29.78 1008.3
02 20:53 W 7 10.00 Mostly Cloudy BKN100 70 33.1 26% 29.78 1008.2
02 19:53 SW 5 10.00 Partly Cloudy SCT120 70 33.1 26% 29.79 1008.8
02 18:53 SW 9 10.00 Fair CLR 72 32 73 66 23% 29.81 1009.6
02 17:53 SW 16 G 24 10.00 Fair CLR 73 30 20% 29.84 1010.5
02 16:53 SW 12 G 24 10.00 Fair CLR 72 28.9 20% 29.87 1011.6
02 15:53 SW 17 G 28 10.00 Fair CLR 71.1 24.1 17% 29.91 1012.9
02 14:53 SW 18 G 25 10.00 Fair CLR 70 24.1 18% 29.95 1014.5
02 13:53 SW 15 G 22 10.00 Fair CLR 69.1 28 22% 29.99 1015.6
02 12:53 SW 15 G 22 10.00 Fair CLR 66 28 66.9 37.9 24% 30.02 1016.9
02 11:53 SW 14 G 22 10.00 Fair CLR 64 28.9 27% 30.05 1018.1
02 10:53 SW 12 10.00 Fair CLR 62.1 32 32% 30.08 1018.8
02 09:53 W 10 10.00 Fair CLR 55.9 34 44% 30.09 1019.3
02 08:53 W 10 10.00 Fair CLR 48.9 33.1 55% 45 30.1 1019.7
02 07:53 SW 7 10.00 Fair CLR 41 30.9 67% 37 30.1 1020.1
02 06:53 SW 7 10.00 Fair CLR 37.9 28 39.9 34 68% 33 30.11 1020.2
02 05:53 SW 7 10.00 Fair CLR 37 28 70% 32 30.12 1020.7
02 04:53 SW 7 10.00 Fair CLR 37.9 26.1 62% 33 30.13 1020.9
02 03:53 SW 6 10.00 Fair CLR 39 26.1 60% 35 30.13 1021.0
02 02:53 SW 3 10.00 Fair CLR 37.9 28 68% 30.13 1021.0
02 01:53 SW 3 10.00 Fair CLR 37.9 30 73% 30.15 1021.7
02 00:53 W 5 10.00 Fair CLR 39 32 55 37 76% 36 30.15 1021.9
01 23:53 SW 3 10.00 Fair CLR 41 35.1 79% 30.15 1021.6
01 22:53 Calm 10.00 Fair CLR 44.1 30.9 60% 30.14 1021.5
01 21:53 Calm 10.00 Fair CLR 46 26.1 46% 30.13 1021.2
01 20:53 Calm 10.00 Fair CLR 46.9 26.1 44% 30.12 1020.7
01 19:53 N 6 10.00 Fair CLR 53.1 24.1 32% 30.12 1020.7
01 18:53 N 9 10.00 Fair CLR 55 21.9 55.9 50 28% 30.11 1020.7
01 17:53 N 9 10.00 A Few Clouds FEW070 55 23 29% 30.12 1020.8
01 16:53 N 14 G 23 10.00 Fair CLR 55.9 21.9 27% 30.12 1020.8
Date Time (cdt) Wind (mph) Vis. (mi.) Weather Sky Cond. Air Dwpt Max. Min. Relative Humidity Wind Chill (°F) Heat Index (°F) altimeter (in) sea level (mb) 1 hr 3 hr 6 hr
6 hour
Temperature (ºF) Pressure Precipitation (in)